TimeCST,TemperatureF,Dew PointF,Humidity,Sea Level PressureIn,VisibilityMPH,Wind Direction,Wind SpeedMPH,Gust SpeedMPH,PrecipitationIn,Events,Conditions,WindDirDegrees,DateUTC
12:15 AM,51.8,40.5,65,29.82,10.0,SSW,17.3,-,N/A,,Clear,200,2011-11-25 06:15:00
1:15 AM,50.2,41.2,71,29.81,10.0,South,17.3,-,N/A,,Clear,190,2011-11-25 07:15:00
1:35 AM,49.5,41.2,73,29.80,10.0,South,15.0,-,N/A,,Clear,190,2011-11-25 07:35:00
1:55 AM,49.1,41.4,75,29.80,10.0,South,16.1,21.9,N/A,,Clear,190,2011-11-25 07:55:00
2:15 AM,48.7,41.5,76,29.81,10.0,South,15.0,-,N/A,,Clear,190,2011-11-25 08:15:00
2:35 AM,48.2,41.5,78,29.82,10.0,South,15.0,-,N/A,,Clear,190,2011-11-25 08:35:00
2:55 AM,47.8,41.7,79,29.82,10.0,SSW,11.5,-,N/A,,Clear,200,2011-11-25 08:55:00
3:15 AM,47.3,41.9,82,29.82,10.0,SSW,11.5,-,N/A,,Clear,200,2011-11-25 09:15:00
3:35 AM,46.8,41.7,83,29.80,10.0,South,11.5,-,N/A,,Clear,190,2011-11-25 09:35:00
4:35 AM,46.6,42.1,84,29.80,10.0,South,10.4,-,N/A,,Clear,190,2011-11-25 10:35:00
4:55 AM,46.6,42.3,85,29.80,10.0,South,12.7,-,N/A,,Clear,190,2011-11-25 10:55:00
5:15 AM,46.6,42.3,85,29.79,7.0,South,11.5,-,N/A,,Clear,180,2011-11-25 11:15:00
5:35 AM,46.6,42.3,85,29.79,7.0,South,11.5,-,N/A,,Clear,190,2011-11-25 11:35:00
5:55 AM,46.6,42.3,85,29.79,7.0,South,13.8,-,N/A,,Clear,190,2011-11-25 11:55:00
6:15 AM,46.2,41.9,85,29.79,7.0,South,11.5,-,N/A,,Clear,190,2011-11-25 12:15:00
6:35 AM,45.0,41.4,87,29.78,7.0,South,12.7,-,N/A,,Clear,190,2011-11-25 12:35:00
6:55 AM,44.8,41.4,88,29.77,7.0,South,13.8,-,N/A,,Clear,180,2011-11-25 12:55:00
7:15 AM,45.0,41.4,87,29.78,7.0,South,15.0,-,N/A,,Clear,190,2011-11-25 13:15:00
7:55 AM,47.1,42.8,85,29.77,7.0,SSW,20.7,26.5,N/A,,Mostly Cloudy,200,2011-11-25 13:55:00
8:15 AM,47.8,43.2,84,29.78,7.0,SSW,17.3,-,N/A,,Overcast,200,2011-11-25 14:15:00
8:35 AM,48.6,43.7,83,29.78,7.0,SSW,18.4,24.2,N/A,,Overcast,210,2011-11-25 14:35:00
8:55 AM,50.0,44.2,81,29.79,7.0,SSW,20.7,26.5,N/A,,Overcast,210,2011-11-25 14:55:00
9:15 AM,50.5,44.6,80,29.79,7.0,SSW,18.4,25.3,N/A,,Overcast,210,2011-11-25 15:15:00
9:35 AM,51.1,45.0,80,29.78,7.0,SSW,18.4,-,N/A,,Overcast,210,2011-11-25 15:35:00
10:15 AM,51.8,45.3,79,29.79,7.0,SSW,17.3,-,N/A,,Overcast,210,2011-11-25 16:15:00
10:55 AM,52.7,45.5,76,29.77,7.0,SSW,15.0,21.9,N/A,,Overcast,210,2011-11-25 16:55:00
11:35 AM,53.6,45.7,75,29.76,7.0,SSW,18.4,-,N/A,,Overcast,210,2011-11-25 17:35:00
11:55 AM,53.6,45.7,75,29.75,7.0,SSW,19.6,27.6,N/A,,Overcast,200,2011-11-25 17:55:00
12:35 PM,54.0,45.7,74,29.73,7.0,SSW,20.7,-,N/A,,Overcast,200,2011-11-25 18:35:00
12:55 PM,54.0,45.7,74,29.72,7.0,SSW,16.1,23.0,N/A,,Overcast,200,2011-11-25 18:55:00
1:15 PM,54.1,45.5,73,29.72,7.0,SSW,18.4,25.3,N/A,,Overcast,200,2011-11-25 19:15:00
1:35 PM,54.5,45.7,72,29.71,7.0,South,15.0,23.0,N/A,,Overcast,190,2011-11-25 19:35:00
1:55 PM,53.8,45.5,74,29.70,7.0,South,17.3,-,N/A,,Overcast,190,2011-11-25 19:55:00
2:15 PM,53.8,45.7,74,29.69,7.0,South,16.1,21.9,N/A,,Overcast,180,2011-11-25 20:15:00
2:35 PM,53.6,45.7,75,29.70,7.0,South,16.1,25.3,N/A,,Overcast,190,2011-11-25 20:35:00
3:15 PM,53.8,45.9,75,29.70,7.0,South,17.3,-,N/A,,Overcast,190,2011-11-25 21:15:00
3:35 PM,53.8,46.0,75,29.70,7.0,South,17.3,21.9,N/A,,Overcast,180,2011-11-25 21:35:00
3:55 PM,53.6,45.9,75,29.70,7.0,South,16.1,23.0,N/A,,Overcast,180,2011-11-25 21:55:00
4:15 PM,53.6,46.0,76,29.69,7.0,South,16.1,21.9,N/A,,Overcast,170,2011-11-25 22:15:00
4:35 PM,53.4,46.0,76,29.68,7.0,South,16.1,-,N/A,,Overcast,170,2011-11-25 22:35:00
5:15 PM,53.2,46.0,77,29.70,7.0,South,11.5,-,N/A,,Overcast,190,2011-11-25 23:15:00
5:35 PM,53.2,46.4,78,29.71,7.0,South,12.7,-,N/A,,Overcast,190,2011-11-25 23:35:00
5:55 PM,53.2,46.4,78,29.70,7.0,South,11.5,-,N/A,,Overcast,180,2011-11-25 23:55:00
6:15 PM,53.1,46.4,78,29.70,7.0,South,10.4,-,N/A,,Overcast,180,2011-11-26 00:15:00
6:35 PM,53.1,46.4,78,29.70,7.0,South,12.7,-,N/A,,Overcast,170,2011-11-26 00:35:00
6:55 PM,53.6,46.8,78,29.71,7.0,South,11.5,-,N/A,,Overcast,180,2011-11-26 00:55:00
7:35 PM,54.0,46.9,77,29.70,7.0,SSE,9.2,-,N/A,,Overcast,160,2011-11-26 01:35:00
8:15 PM,54.1,47.3,78,29.69,10.0,SSE,11.5,-,N/A,,Overcast,160,2011-11-26 02:15:00
8:55 PM,54.9,47.8,77,29.68,10.0,South,12.7,-,N/A,,Overcast,170,2011-11-26 02:55:00
9:15 PM,55.4,48.2,77,29.68,10.0,South,13.8,-,N/A,,Overcast,180,2011-11-26 03:15:00
9:35 PM,55.6,48.4,77,29.68,10.0,South,13.8,-,N/A,,Overcast,180,2011-11-26 03:35:00
9:55 PM,56.1,48.6,76,29.68,10.0,South,13.8,19.6,N/A,,Overcast,170,2011-11-26 03:55:00
10:15 PM,56.3,48.6,75,29.67,10.0,South,15.0,-,N/A,,Overcast,180,2011-11-26 04:15:00
10:35 PM,56.3,48.6,75,29.69,10.0,South,12.7,-,N/A,,Overcast,180,2011-11-26 04:35:00
10:55 PM,55.9,48.7,77,29.69,10.0,South,13.8,-,N/A,,Overcast,190,2011-11-26 04:55:00